Location: Demmingen
(48.6757°N, 10.4375°E)
Time: 23:11:23
(UTC+00:00)

Cosmos 1825 - Pass Details

Date: 23 May 2024
Orbit: 440 x 443 km, 82.5° (Epoch: 14 June)

Event Time Altitude Azimuth Distance (km) Brightness Sun altitude
Exits shadow 02:35:30 - 185° (S) 2,099 4.8 -7.5°
Reaches altitude 10° 02:36:46 10° 184° (S) 1,561 4.2 -7.4°
Maximum altitude 02:40:10 77° 98° (E) 462 2.0 -7.0°
Drops below altitude 10° 02:43:36 10° 12° (NNE) 1,580 5.6 -6.6°
Sets 02:45:41 0° 11° (NNE) 2,458 6.6 -6.3°
